Regional Weather Roundup
Issued by NWS

Home | Current Version | Previous Version | Graphics & Text | Print | Product List | Glossary Off
Versions: 1 2 3 4 5 6 7 8 9 10 11 12 13 14 15 16 17 18 19 20 21 22 23 24 25 26 27 28 29 30 31 32 33 34 35 36 37 38 39 40 41 42 43 44 45 46 47 48 49 50

000
ASUS43 KMKX 190011
RWRWI

WISCONSIN REGIONAL WEATHER ROUNDUP
NATIONAL WEATHER SERVICE MILWAUKEE/SULLIVAN WI
700 PM CDT FRI APR 18 2014

NOTE: "FAIR" INDICATES FEW OR NO CLOUDS BELOW 12,000 FEET WITH NO
SIGNIFICANT WEATHER AND/OR OBSTRUCTIONS TO VISIBILITY.

WIZ001-002-006>008-014>016-023>028-190100-
NORTHWEST WISCONSIN

CITY           SKY/WX    TMP DP  RH WIND       PRES   REMARKS
SUPERIOR ARPT  CLEAR     32  27  81 NE10G16   30.33F WCI  24
6HR MIN TEMP:  32; 6HR MAX TEMP:  38;

ASHLAND        CLEAR     34  22  61 NE9       30.38F WCI  27
6HR MIN TEMP:  34; 6HR MAX TEMP:  40;

HAYWARD        CLEAR     44  17  33 E10       30.31F
6HR MIN TEMP:  42; 6HR MAX TEMP:  45;

SIREN          CLOUDY    45  19  36 E5        30.28F
6HR MIN TEMP:  43; 6HR MAX TEMP:  47;

RICE LAKE      MOCLDY    46  21  37 E7        30.30F
6HR MIN TEMP:  41; 6HR MAX TEMP:  48;

LADYSMITH      CLEAR     46  22  38 E8        30.33F
6HR MIN TEMP:  42; 6HR MAX TEMP:  48;

EAU CLAIRE     MOCLDY    50  23  34 NE12      30.28F
6HR MIN TEMP:  46; 6HR MAX TEMP:  53;

MENOMONIE      CLOUDY    50  25  38 E10       30.28F
6HR MIN TEMP:  46; 6HR MAX TEMP:  51;

NEW RICHMOND   CLOUDY    48  25  40 SE9       30.26F
6HR MIN TEMP:  45; 6HR MAX TEMP:  51;

OSCEOLA        CLOUDY    45  29  53 E6        30.28F
6HR MIN TEMP:  43; 6HR MAX TEMP:  47;

$$

WIZ003>005-009-010-017-018-190100-
NORTH CENTRAL WISCONSIN

CITY           SKY/WX    TMP DP  RH WIND       PRES   REMARKS
WOODRUFF       CLEAR     44  21  40 E5        30.34S
6HR MIN TEMP:  43; 6HR MAX TEMP:  52;

RHINELANDER    CLEAR     39  17  41 E8        30.34F WCI  33
6HR MIN TEMP:  36; 6HR MAX TEMP:  42;

EAGLE RIVER    CLEAR     39  21  49 E5        30.34F
6HR MIN TEMP:  36; 6HR MAX TEMP:  40;

LAND O LAKES   CLEAR     38  22  52 E3        30.35F
6HR MIN TEMP:  36; 6HR MAX TEMP:  40;

PHILLIPS       CLOUDY    42  13  30 E3        30.33R
6HR MIN TEMP:  38; 6HR MAX TEMP:  43;

TOMAHAWK       CLEAR     43  13  29 CALM      30.34S
6HR MIN TEMP:  40; 6HR MAX TEMP:  44;

MEDFORD        CLEAR     45  21  39 NE3       30.32S
6HR MIN TEMP:  40; 6HR MAX TEMP:  46;

MERRILL        CLEAR     45  15  30 CALM      30.34S
6HR MIN TEMP:  42; 6HR MAX TEMP:  46;

$$

WIZ029-030-035-036-043>047-190100-
CENTRAL WISCONSIN

CITY           SKY/WX    TMP DP  RH WIND       PRES   REMARKS
WAUSAU         CLEAR     47  19  33 E6        30.32S
6HR MIN TEMP:  43; 6HR MAX TEMP:  49; 6HR PCP: TRACE;

MOSINEE        CLEAR     45  23  42 NE6       30.34S
MARSHFIELD     CLEAR     49  24  37 NE5       30.31F
6HR MIN TEMP:  45; 6HR MAX TEMP:  51;

STEVENS POINT  CLEAR     47  20  35 NE6       30.33S
6HR MIN TEMP:  44; 6HR MAX TEMP:  49;

WAUPACA        CLEAR     52  19  28 NE7       30.34S
WAUTOMA        CLEAR     53  22  30 VRB6      30.33S
6HR MIN TEMP:  48; 6HR MAX TEMP:  54;

WISC RAPIDS    CLEAR     51  20  29 NE6       30.34R
6HR MIN TEMP:  47; 6HR MAX TEMP:  53;

CAMP DOUGLAS   CLEAR     51  25  35 E8        30.30F
6HR MIN TEMP:  49; 6HR MAX TEMP:  57;

$$

WIZ011>013-019>022-031-037>040-048>050-190100-
NORTHEAST WISCONSIN

CITY           SKY/WX    TMP DP  RH WIND       PRES   REMARKS
ANTIGO         CLEAR     42  18  37 CALM      30.34F
6HR MIN TEMP:  39; 6HR MAX TEMP:  44;

STURGEON BAY   CLEAR     39  25  56 SE5       30.40R
6HR MIN TEMP:  39; 6HR MAX TEMP:  45;

GREEN BAY      CLEAR     44  26  49 NE13      30.38R
6HR MIN TEMP:  44; 6HR MAX TEMP:  50;

MANITOWOC      CLEAR     38  28  67 E7        30.40R WCI  33
6HR MIN TEMP:  38; 6HR MAX TEMP:  44;

APPLETON       PTCLDY    48  25  40 VRB5      30.35R
CLINTONVILLE   CLEAR     50  19  29 CALM      30.34S
OSHKOSH        CLEAR     47  24  40 E5        30.34S
6HR MIN TEMP:  43; 6HR MAX TEMP:  49;

$$

WIZ032>034-041-042-053>061-190100-
SOUTHWEST WISCONSIN

CITY           SKY/WX    TMP DP  RH WIND       PRES   REMARKS
LA CROSSE      MOCLDY    55  25  31 E5        30.27F
6HR MIN TEMP:  49; 6HR MAX TEMP:  56;

SPARTA         PTCLDY    53  23  31 E7        30.30F
6HR MIN TEMP:  49; 6HR MAX TEMP:  56;

VIROQUA        FAIR      53  29  40 E7        30.28S
6HR MIN TEMP:  47; 6HR MAX TEMP:  54;

BOSCOBEL       CLEAR     58  24  27 E6        30.29S
6HR MIN TEMP:  52; 6HR MAX TEMP:  60;

PRAIRIE DU CHI CLEAR     57  25  28 E7        30.26F
PLATTEVILLE    FAIR      56  28  34 E6        30.29S
6HR MIN TEMP:  50; 6HR MAX TEMP:  58;

$$

WIZ056-057-062-063-064-067-068-190100-
SOUTH CENTRAL WISCONSIN

CITY           SKY/WX    TMP DP  RH WIND       PRES   REMARKS
BARABOO/DELLS  CLEAR     53  23  32 E5        30.31S
6HR MIN TEMP:  47; 6HR MAX TEMP:  55;

LONE ROCK      CLEAR     54  30  40 E8        30.30S
6HR MIN TEMP:  49; 6HR MAX TEMP:  58;

WATERTOWN      CLEAR     49  30  47 NE6       30.33S
6HR MIN TEMP:  46; 6HR MAX TEMP:  53;

MADISON        PTCLDY    52  29  41 E7        30.31F
6HR MIN TEMP:  49; 6HR MAX TEMP:  56;

MIDDLETON      FAIR      53  27  36 E5        30.32S
6HR MIN TEMP:  49; 6HR MAX TEMP:  56;

MONROE         CLEAR     54  29  39 NE8       30.29F
JANESVILLE     CLEAR     55  21  26 NE6       30.31R
$$

WIZ051-052-058>065-066-070>072-190100-
SOUTHEAST WISCONSIN

CITY           SKY/WX    TMP DP  RH WIND       PRES   REMARKS
MILWAUKEE      PTCLDY    36  27  69 NE13      30.39S WCI  27
6HR MIN TEMP:  36; 6HR MAX TEMP:  43;

WAUKESHA       CLEAR     39  28  65 NE12      30.37R WCI  32
MILWAUKEE/TIMM CLEAR     39  25  56 NE9       30.38S WCI  33
RACINE         CLEAR     36  28  73 NE14      30.39S WCI  27
6HR MIN TEMP:  36; 6HR MAX TEMP:  45;

BURLINGTON     CLEAR     39  31  71 E10       30.36R WCI  32
6HR MIN TEMP:  39; 6HR MAX TEMP:  56;

KENOSHA        CLEAR     38  29  70 E12       30.37R WCI  30
6HR MIN TEMP:  38; 6HR MAX TEMP:  47;

FOND DU LAC    CLEAR     48  24  39 NE6       30.35R
6HR MIN TEMP:  44; 6HR MAX TEMP:  49;

SHEBOYGAN      CLEAR     36  27  69 NE10      30.39R WCI  28
6HR MIN TEMP:  36; 6HR MAX TEMP:  46;

WEST BEND      CLEAR     37  27  65 E7        30.38R WCI  32
JUNEAU         CLEAR     48  27  44 NE7       30.35R
6HR MIN TEMP:  45; 6HR MAX TEMP:  51;

$$

LSZ147-162-190100-
LAKE SUPERIOR

STATION/POSITION TIME  TEMP    WIND        PRES    WAVE
                       AIR SEA DIR/SP/G            HT/PER
                 (UTC) (F)     (DEG/KT/KT) (MB)    (FT/S)
DEVILS ISLAND    0000   33     120/ 10/ 11 1030.1F
PORT WING        2340   35      60/  3/ 13 1027.8F
SAXON HARBOR     2300           40/  9/ 11 1029.1
$$

LMZ867-665-643>646-190100-
LAKE MICHIGAN

STATION/POSITION TIME  TEMP    WIND        PRES    WAVE
                       AIR SEA DIR/SP/G            HT/PER
                 (UTC) (F)     (DEG/KT/KT) (MB)    (FT/S)
NORTHPORT PIER   2300   36     150/  5/  6 1029.1R
SISTER BAY       2323   40     120/  6/  8   N/A
KEWAUNEE LAKESHO 2300   36     120/  4/  6 1029.6R
SHEBOYGAN LAKESH 0000   36      50/  5/  6 1030.0R
PORT WASHINGTON  2300   37      60/  6/  8 1029.5R
MILWAUKEE LAKESH 2300   35      50/  8/  9   N/A
KENOSHA   LAKESH 0000   36      30/ 13/ 15   N/A
$$

TC  - TEMPERATURE IN CELSIUS
VSB - VISIBILITY IN STATUTE MILES
WCI - WIND CHILL INDEX
HX  - HEAT INDEX




USA.gov is the U.S. government's official web portal to all federal, state and local government web resources and services.